Location: S�tio Afonso Gruber
(26.1760°S, 49.5250°W)
Time: 21:32:38
(UTC+00:00)

Cosmos 2016 Rocket - Pass Details

Date: 04 October 2020
Orbit: 946 x 1001 km, 83.0° (Epoch: 27 October)

Event Time Altitude Azimuth Distance (km) Brightness Sun altitude
Rises 06:37:39 0° 19° (NNE) 3,630 7.0 -30.4°
Reaches altitude 10° 06:40:20 10° 27° (NNE) 2,699 6.3 -29.9°
Maximum altitude 06:45:52 35° 91° (E) 1,524 5.4 -28.7°
Drops below altitude 10° 06:51:31 10° 154° (SSE) 2,761 6.9 -27.6°
Sets 06:54:16 0° 162° (SSE) 3,724 7.6 -27.0°
